Location: Chakepay
(13.3931°S, 72.1925°W)
Time: 08:15:43
(UTC+00:00)

Cosmos 1455 - Pass Details

Date: 15 November 2019
Orbit: 499 x 523 km, 82.5° (Epoch: 10 December)

Event Time Altitude Azimuth Distance (km) Brightness Sun altitude
Exits shadow 09:35:53 - 322° (NW) 1,863 4.5 -8.9°
Reaches altitude 10° 09:36:18 10° 318° (NW) 1,722 4.3 -8.9°
Maximum altitude 09:39:23 24° 264° (W) 1,102 3.4 -8.2°
Drops below altitude 10° 09:42:31 10° 209° (SSW) 1,749 4.8 -7.4°
Sets 09:44:58 0° 194° (SSW) 2,647 5.9 -6.9°
